Location: Alpha Ridge Park
(39.3209°N, 76.9128°W)
Time: 04:21:12
(UTC-04:00)

S-56A Canister/Altair - Visible Passes

Search period start: 19 May 2019 00:00
Search period end: 29 May 2019 00:00
Orbit: 633 x 2500 km, 38.9° (Epoch: 17 May)

Date Brightness Start Highest point End Pass type
(mag) Time Alt. Az. Time Alt. Az. Time Alt. Az.
19 May 9.4 02:23:16 31° SE 02:23:16 31° SE 02:30:58 10° E visible
19 May 9.0 04:20:40 19° WSW 04:26:45 75° SSE 04:38:37 10° E visible
20 May 9.7 01:52:05 24° ESE 01:52:05 24° ESE 01:57:11 10° E visible
20 May 8.8 03:49:29 29° SW 03:53:48 70° SSE 04:04:52 10° E visible
21 May 10.1 01:20:54 16° ESE 01:20:54 16° ESE 01:23:21 10° E visible
21 May 8.6 03:18:18 41° SW 03:20:58 64° SSE 03:31:09 10° E visible
22 May 8.3 02:47:06 52° S 02:48:13 57° SSE 02:57:30 10° E visible
22 May 9.0 04:45:01 10° W 04:52:49 88° S 05:04:55 10° E visible
23 May 8.5 02:15:53 50° SE 02:15:53 50° SE 02:23:56 10° E visible
23 May 8.8 04:13:17 14° W 04:19:48 87° S 04:31:08 10° E visible
24 May 9.0 01:44:41 36° ESE 01:44:41 36° ESE 01:50:26 10° E visible
24 May 8.6 03:42:04 23° WSW 03:46:53 85° S 03:57:25 10° E visible
25 May 9.5 01:13:28 24° E 01:13:28 24° E 01:17:00 10° E visible
25 May 8.3 03:10:52 35° WSW 03:14:02 82° S 03:23:46 10° E visible
25 May 9.1 05:11:06 10° W 05:18:59 83° S 05:31:11 10° ESE visible
26 May 10.0 00:42:15 15° E 00:42:15 15° E 00:43:36 10° E visible
26 May 8.1 02:39:39 54° WSW 02:41:16 78° SSE 02:50:11 10° E visible
26 May 8.8 04:38:38 10° W 04:45:58 84° S 04:57:25 10° ESE visible
27 May 7.9 02:08:27 72° S 02:08:35 73° SSE 02:16:44 10° E visible
27 May 8.6 04:06:12 10° W 04:13:02 86° S 04:23:42 10° E visible
28 May 8.3 01:37:15 53° ESE 01:37:15 53° ESE 01:43:20 10° E visible
28 May 8.4 03:34:39 15° W 03:40:09 87° S 03:50:03 10° E visible
